Regional Weather Roundup
Issued by NWS

Home | Current Version | Previous Version | Graphics & Text | Print | Product List | Glossary On
Versions: 1 2 3 4 5 6 7 8 9 10 11 12 13 14 15 16 17 18 19 20 21 22 23 24 25 26 27 28 29 30 31 32 33 34 35 36 37 38 39 40 41 42 43 44 45 46 47 48 49 50
547
ASUS44 KLIX 260110
RWRLA
LOUISIANA WEATHER ROUNDUP
NATIONAL WEATHER SERVICE NEW ORLEANS LA
700 PM CST TUE NOV 25 2014

NOTE: "FAIR" INDICATES FEW OR NO CLOUDS BELOW 12,000 FEET WITH NO
      SIGNIFICANT WEATHER AND/OR OBSTRUCTIONS TO VISIBILITY.
      SKY/WX - SKY CONDITION AND SIGNIFICANT WEATHER.
      TMP - AIR TEMPERATURE.    DP   - DEWPOINT TEMPERATURE.
      RH  - RELATIVE HUMIDITY.  PRES - PRESSURE.
      HX  - HEAT INDEX.         WCI  - WIND CHILL INDEX.

*  THESE STATIONS ARE NOT NWS OR FAA STATIONS AND ARE NOT UNDER
   NWS QUALITY CONTROL.

LAZ040-048-061>063-065-066-069-260200-
SOUTHEAST LOUISIANA

CITY           SKY/WX    TMP DP  RH WIND       PRES   REMARKS
N.O. AUDUBON     N/A     52  36  53 MISG        N/A
N.O. INTL ARPT CLOUDY    52  32  46 NW13G21   30.20R
N.O. LAKEFRONT CLOUDY    54  36  50 NW17      30.20R
N.O. DOWNTOWN* FAIR      54  30  40 N8G17     30.20R
SLIDELL        CLOUDY    51  34  52 N7        30.19R
BATON ROUGE    PTCLDY    45  33  63 NW3       30.23R
BOOTHVILLE     CLOUDY    55  39  54 VRB5      30.18R
BELLE CHASSE   CLOUDY    54  32  43 VRB7      30.18R
BOGALUSA*        N/A     49  33  53 N5        30.21R
NEW ROADS*     FAIR      43  34  71 CALM      30.24R
GONZALES*      FAIR      47  33  58 CALM      30.22R
HAMMOND*       CLOUDY    48  32  53 NW6       30.23R
HOUMA*         CLOUDY    50  35  56 NW6       30.21R
PORT FOURCHON* CLEAR     54  36  50 N16       30.22R

$$

LAZ041-044-053-054-260200-
SOUTHWEST LOUISIANA

CITY           SKY/WX    TMP DP  RH WIND       PRES   REMARKS
LAKE CHARLES   CLEAR     44  39  82 CALM      30.25R
LAFAYETTE      CLEAR     45  39  79 CALM      30.25R
PATTERSON      PTCLDY    48  34  57 N8        30.25R
SALT POINT       N/A     55  36  48 VRB5      30.23R
NEW IBERIA     CLEAR     44  36  73 CALM      30.25R
CHENAULT AIRPK NOT AVBL

$$

LAZ027-028-260200-
CENTRAL LOUISIANA

CITY           SKY/WX    TMP DP  RH WIND       PRES   REMARKS
FORT POLK      CLEAR     43  38  82 S2        30.23R
ALEXANDRIA INT CLEAR     43  34  70 CALM      30.23R
ALEXANDRIA     CLEAR     39  37  92 CALM      30.24R

$$

LAZ001-002-260200-
NORTHWEST LOUISIANA

CITY           SKY/WX    TMP DP  RH WIND       PRES   REMARKS
SHREVEPORT     CLEAR     48  32  53 SE5       30.18S
BARKSDALE AFB  CLEAR     42  31  65 SE6       30.19S
DTN SHREVEPORT CLEAR     47  28  47 SE6       30.19R

$$

LAZ014-016-260200-
NORTHEAST LOUISIANA

CITY           SKY/WX    TMP DP  RH WIND       PRES   REMARKS
MONROE         CLEAR     40  35  83 CALM      30.23S
TALLULAH       CLEAR     35  30  82 NW3       30.24R

$$




USA.gov is the U.S. government's official web portal to all federal, state and local government web resources and services.